sat.trackr.live / text

‹ back to catalog

STARLINK-5754

NORAD 55579 · 2023-020L

PAYLOAD ACTIVE UNKNOWN

§ Identity

Operator
Country
US
Launch date
2023-02-12
Launch site
AFETR
Launch vehicle
Mass (kg)
RCS (m²)

Purposes: comms

External: N2YO · Heavens-Above · Gunter

§ Orbital elements

Epoch: 2026-05-25T03:05:46.116672Z

Period
94.27 min
Inclination
43.0039°
Eccentricity
0.0001198
Mean motion
15.27576154 rev/d
Perigee alt
482.2 km
Apogee alt
483.9 km
Semi-major
6,861.2 km
B*
-1.7910e-6
RAAN
293.4748°
Arg perigee
278.5564°
Mean anomaly
81.5152°
Rev number
18,060

§ Raw data

STARLINK-57541 55579U 23020L   26145.12900598 -.00000311  00000+0 -17910-5 0  99992 55579  43.0039 293.4748 0001198 278.5564  81.5152 15.27576154180605

JSON: /api/v1/satellites/55579 · /tle

For live sub-satellite position, see the globe view (requires WebGL).

§ Visibility from observer

Set your observer location to see the next 7 days of passes ≥ 10°. The values pass through the URL so the page stays shareable.

No JS? Fill the form by hand. The geolocation button needs JavaScript.